Tracking 20942 objects as of 15-Jul-2020
HD Live streaming from Space Station
objects crossing your sky now

SCOUT G-1 DEB

Track SCOUT G-1 DEB now!
10-day predictions


NORAD ID: 44571
Int'l Code: 1985-066K
Perigee: 995.2 km
Apogee: 1,245.4 km
Inclination: 90.1 °
Period: 107.5 minutes
Semi major axis: 7491 km
RCS: Unknown
Launch date: August 3, 1985
Source: United States (US)
Launch site: AIR FORCE WESTERN TEST RANGE (AFWTR)

Note: This is SATELLITE DEBRIS
aabbcc
Your satellite tracking list
Your tracking list is empty




NASA's NSSDC Master Catalog

Two Line Element Set (TLE):
1 44571U 85066K   20194.86462442 +.00000345 +00000-0 +58145-3 0  9996
2 44571 090.1315 054.9246 0166966 239.7235 118.7297 13.38961908368546
Source of the keplerian elements: AFSPC